Location: Guferjoch
(46.7462°N, 8.4506°E)
Time: 13:21:54
(UTC+00:00)

Cosmos 2016 Rocket - Pass Details

Date: 14 July 2020
Orbit: 948 x 999 km, 83.0° (Epoch: 07 August)

Event Time Altitude Azimuth Distance (km) Brightness Sun altitude
Exits shadow 01:53:41 21° 217° (SW) 2,021 5.0 -14.5°
Maximum altitude 01:57:42 50° 284° (WNW) 1,208 4.4 -14.1°
Drops below altitude 10° 02:03:45 10° 360° (N) 2,730 7.2 -13.5°
Sets 02:06:24 0° 6° (N) 3,690 8.1 -13.3°
